Weather History for Bentonville, AR

Change the Weather History Date:

Tuesday, March 5, 2013

  Actual Average Record
Temperature  
Mean Temperature 38 °F -  
Max Temperature 44 °F 54 °F 79 °F (1961)
Min Temperature 32 °F 28 °F 3 °F (1960)
Degree Days  
Heating Degree Days 27    
Moisture  
Dew Point 23 °F    
Average Humidity 57    
Maximum Humidity 87    
Minimum Humidity 39    
Precipitation  
Precipitation 0.09 in - - ()
Sea Level Pressure  
Sea Level Pressure 30.15 in    
Wind  
Wind Speed 15 mph (NW)    
Max Wind Speed 22 mph    
Max Gust Speed 33 mph    
Visibility 10 miles    
Events      
Averages and records for this station are not official NWS values.
T = Trace of Precipitation, MM = Missing Value Source: NWS Daily Summary

Daily Weather History Graph

Daily Weather History Graph

Search for Another Location

Airport:

Trip Planner

Search our weather history database for the weather conditions in past years. The results will help you decide how hot, cold, wet, or windy it might be!

Date:

Astronomy

Mar. 05, 2013 Rise Set
Actual Time 6:41 AM CST 6:15 PM CST
Civil Twilight 6:15 AM CST 6:41 PM CST
Nautical Twilight 5:45 AM CST 7:11 PM CST
Astronomical Twilight 5:16 AM CST 7:41 PM CST
Moon 1:46 AM CST (3/5) 12:02 PM CST (3/5)
Length of Visible Light 12h 25m
Length of Day
11h 34m
Last Quarter, 40% of the Moon is Illuminated
Mar 5
Last Quarter
Mar 11
New
Mar 19
First Quarter
Mar 27
Full
Apr 2
Last Quarter

Hourly Weather History & Observations

Time (CST) Temp. Windchill Dew Point Humidity Pressure Visibility Wind Dir Wind Speed Gust Speed Precip Events Conditions
12:15 AM 42.8 °F 35.8 °F 30.2 °F 61% 29.88 in 10.0 mi North 13.8 mph 19.6 mph N/A   Clear
1:35 AM 41.0 °F 31.6 °F 30.2 °F 65% 29.91 in 10.0 mi North 20.7 mph 25.3 mph N/A   Mostly Cloudy
1:55 AM 41.0 °F 33.9 °F 30.2 °F 65% 29.92 in 10.0 mi North 12.7 mph - N/A   Overcast
2:15 AM 41.0 °F 32.8 °F 30.2 °F 65% 29.94 in 10.0 mi NNW 16.1 mph 24.2 mph N/A   Overcast
2:35 AM 39.2 °F 33.6 °F 30.2 °F 70% 29.97 in 10.0 mi NNW 8.1 mph 19.6 mph N/A   Overcast
2:55 AM 39.2 °F 31.6 °F 32.0 °F 75% 29.97 in 10.0 mi NNW 12.7 mph 20.7 mph 0.03 in   Overcast
3:15 AM 37.4 °F 29.3 °F 32.0 °F 81% 29.97 in 5.0 mi NNW 12.7 mph 19.6 mph N/A   Overcast
3:35 AM 37.4 °F 29.3 °F 32.0 °F 81% 29.99 in 5.0 mi NW 12.7 mph 19.6 mph 0.01 in   Overcast
3:55 AM 37.4 °F 28.5 °F 32.0 °F 81% 30.00 in 5.0 mi NW 15.0 mph 23.0 mph 0.02 in   Overcast
4:15 AM 37.4 °F 28.9 °F 32.0 °F 81% 30.01 in 6.0 mi NNW 13.8 mph 23.0 mph 0.02 in   Overcast
4:35 AM 35.6 °F 27.5 °F 30.2 °F 81% 30.01 in 6.0 mi NNW 11.5 mph 19.6 mph 0.03 in   Overcast
4:55 AM 35.6 °F 27.1 °F 32.0 °F 87% 30.01 in 10.0 mi NNW 12.7 mph 18.4 mph 0.04 in   Overcast
5:15 AM 35.6 °F 28.6 °F 30.2 °F 81% 30.03 in 10.0 mi NNW 9.2 mph - N/A   Overcast
5:35 AM 35.6 °F 26.2 °F 30.2 °F 81% 30.05 in 10.0 mi NW 15.0 mph 26.5 mph N/A   Overcast
5:55 AM 35.6 °F 26.6 °F 30.2 °F 81% 30.05 in 10.0 mi NNW 13.8 mph 21.9 mph N/A   Overcast
6:15 AM 35.6 °F 26.6 °F 30.2 °F 81% 30.07 in 10.0 mi NNW 13.8 mph 24.2 mph N/A   Overcast
6:35 AM 35.6 °F 27.1 °F 30.2 °F 81% 30.08 in 10.0 mi NNW 12.7 mph 24.2 mph N/A   Overcast
7:35 AM 35.6 °F 28.0 °F 28.4 °F 75% 30.09 in 10.0 mi NNW 10.4 mph 18.4 mph N/A   Overcast
7:55 AM 35.6 °F 25.5 °F 28.4 °F 75% 30.11 in 10.0 mi NW 17.3 mph 23.0 mph N/A   Mostly Cloudy
8:15 AM 35.6 °F 24.8 °F 26.6 °F 70% 30.12 in 10.0 mi NW 19.6 mph 27.6 mph N/A   Overcast
8:35 AM 35.6 °F 26.2 °F 24.8 °F 65% 30.13 in 10.0 mi NW 15.0 mph 20.7 mph N/A   Mostly Cloudy
8:55 AM 35.6 °F 25.9 °F 19.4 °F 52% 30.14 in 10.0 mi NNW 16.1 mph 27.6 mph N/A   Scattered Clouds
9:15 AM 35.6 °F 25.2 °F 21.2 °F 56% 30.15 in 10.0 mi NW 18.4 mph 26.5 mph N/A   Clear
9:35 AM 35.6 °F 24.2 °F 21.2 °F 56% 30.16 in 10.0 mi WNW 21.9 mph 25.3 mph N/A   Scattered Clouds
9:55 AM 35.6 °F 24.2 °F 19.4 °F 52% 30.17 in 10.0 mi NW 21.9 mph 29.9 mph N/A   Scattered Clouds
10:15 AM 35.6 °F 26.2 °F 19.4 °F 52% 30.19 in 10.0 mi NW 15.0 mph 25.3 mph N/A   Partly Cloudy
10:35 AM 35.6 °F 24.5 °F 19.4 °F 52% 30.19 in 10.0 mi WNW 20.7 mph 29.9 mph N/A   Partly Cloudy
10:55 AM 35.6 °F 24.8 °F 17.6 °F 48% 30.19 in 10.0 mi NW 19.6 mph 29.9 mph N/A   Clear
11:15 AM 37.4 °F 27.5 °F 19.4 °F 48% 30.19 in 10.0 mi NW 18.4 mph 25.3 mph N/A   Clear
11:35 AM 37.4 °F 27.5 °F 19.4 °F 48% 30.19 in 10.0 mi WNW 18.4 mph 26.5 mph N/A   Clear
11:55 AM 37.4 °F 27.5 °F 19.4 °F 48% 30.20 in 10.0 mi NW 18.4 mph 27.6 mph N/A   Clear
12:15 PM 37.4 °F 27.5 °F 19.4 °F 48% 30.20 in 10.0 mi NW 18.4 mph 25.3 mph N/A   Clear
12:35 PM 37.4 °F 27.8 °F 19.4 °F 48% 30.19 in 10.0 mi NW 17.3 mph 28.8 mph N/A   Clear
12:55 PM 39.2 °F 30.2 °F 19.4 °F 45% 30.19 in 10.0 mi NW 17.3 mph 27.6 mph N/A   Clear
1:15 PM 39.2 °F 29.8 °F 21.2 °F 49% 30.19 in 10.0 mi NW 18.4 mph 26.5 mph N/A   Clear
1:35 PM 41.0 °F 31.4 °F 23.0 °F 49% 30.19 in 10.0 mi WNW 21.9 mph 29.9 mph N/A   Clear
1:55 PM 41.0 °F 32.5 °F 21.2 °F 45% 30.19 in 10.0 mi WNW 17.3 mph 32.2 mph N/A   Clear
2:15 PM 42.8 °F 35.1 °F 21.2 °F 42% 30.19 in 10.0 mi NW 16.1 mph 24.2 mph N/A   Clear
2:35 PM 42.8 °F 34.0 °F 21.2 °F 42% 30.18 in 10.0 mi WNW 20.7 mph 24.2 mph N/A   Clear
2:55 PM 42.8 °F 34.8 °F 19.4 °F 39% 30.18 in 10.0 mi NW 17.3 mph 29.9 mph N/A   Clear
3:15 PM 44.6 °F 36.1 °F 21.2 °F 39% 30.18 in 10.0 mi WNW 21.9 mph 31.1 mph N/A   Clear
3:35 PM 42.8 °F 34.5 °F 19.4 °F 39% 30.18 in 10.0 mi NW 18.4 mph 28.8 mph N/A   Clear
3:55 PM 44.6 °F 36.4 °F 21.2 °F 39% 30.19 in 10.0 mi WNW 20.7 mph 28.8 mph N/A   Clear
4:15 PM 42.8 °F 33.8 °F 19.4 °F 39% 30.18 in 10.0 mi NW 21.9 mph 29.9 mph N/A   Clear
4:35 PM 42.8 °F 33.8 °F 21.2 °F 42% 30.19 in 10.0 mi NW 21.9 mph 33.4 mph N/A   Clear
4:55 PM 42.8 °F 34.3 °F 19.4 °F 39% 30.19 in 10.0 mi WNW 19.6 mph 29.9 mph N/A   Clear
5:15 PM 42.8 °F 35.1 °F 19.4 °F 39% 30.20 in 10.0 mi NW 16.1 mph 24.2 mph N/A   Clear
5:35 PM 42.8 °F 35.4 °F 19.4 °F 39% 30.20 in 10.0 mi NW 15.0 mph - N/A   Clear
5:55 PM 42.8 °F 34.5 °F 19.4 °F 39% 30.20 in 10.0 mi NW 18.4 mph 25.3 mph N/A   Clear
6:15 PM 41.0 °F 32.8 °F 19.4 °F 42% 30.21 in 10.0 mi NW 16.1 mph 25.3 mph N/A   Clear
6:35 PM 39.2 °F 31.2 °F 19.4 °F 45% 30.21 in 10.0 mi NW 13.8 mph 18.4 mph N/A   Clear
6:55 PM 39.2 °F 33.6 °F 19.4 °F 45% 30.21 in 10.0 mi NW 8.1 mph - N/A   Clear
7:15 PM 39.2 °F 33.0 °F 19.4 °F 45% 30.22 in 10.0 mi NNW 9.2 mph - N/A   Clear
7:35 PM 37.4 °F 30.3 °F 19.4 °F 48% 30.22 in 10.0 mi NW 10.4 mph - N/A   Clear
7:55 PM 37.4 °F 31.4 °F 19.4 °F 48% 30.24 in 10.0 mi NNW 8.1 mph - N/A   Clear
8:15 PM 37.4 °F 31.4 °F 21.2 °F 52% 30.25 in 10.0 mi NNW 8.1 mph - N/A   Clear
8:35 PM 37.4 °F 31.4 °F 21.2 °F 52% 30.25 in 10.0 mi NNW 8.1 mph 16.1 mph N/A   Clear
8:55 PM 35.6 °F 28.0 °F 21.2 °F 56% 30.26 in 10.0 mi NNW 10.4 mph 16.1 mph N/A   Clear
9:15 PM 35.6 °F 28.0 °F 21.2 °F 56% 30.27 in 10.0 mi NNW 10.4 mph - N/A   Clear
9:35 PM 35.6 °F 27.1 °F 21.2 °F 56% 30.28 in 10.0 mi North 12.7 mph - N/A   Clear
9:55 PM 33.8 °F 25.8 °F 19.4 °F 56% 30.28 in 10.0 mi NNW 10.4 mph - N/A   Clear
10:15 PM 33.8 °F 24.8 °F 19.4 °F 56% 30.29 in 10.0 mi North 12.7 mph 19.6 mph N/A   Clear
10:35 PM 33.8 °F 26.4 °F 19.4 °F 56% 30.28 in 10.0 mi North 9.2 mph 18.4 mph N/A   Clear
10:55 PM 33.8 °F 24.8 °F 19.4 °F 56% 30.29 in 10.0 mi North 12.7 mph - N/A   Clear
11:15 PM 32.0 °F 24.2 °F 17.6 °F 55% 30.29 in 10.0 mi NNW 9.2 mph - N/A   Clear
11:35 PM 32.0 °F 23.6 °F 17.6 °F 55% 30.29 in 10.0 mi NNW 10.4 mph - N/A   Clear
11:55 PM 32.0 °F 22.5 °F 17.6 °F 55% 30.28 in 10.0 mi NNW 12.7 mph 20.7 mph N/A   Clear